Home > Weather > Darlington > Past weeks

Flag for United Kingdom Past Weather in Darlington, England, United Kingdom — Yesterday and Last 2 Weeks

Now
68 °F

Passing clouds.


Feels Like: 68 °F
Forecast: 56 / 73 °F
Wind: 13 mph from West

Location: Tees-Side

Current Time: Aug 29, 2016 at 7:07:06 PM

Latest Report: Aug 29, 2016 at 6:20 PM


Visibility: N/A

Pressure: 30.15 "Hg

Humidity: 56%

Dew Point: 52 °F

Location of DarlingtonLocation

Past Weather in Darlington — Graph

°F

Darlington Temperature Yesterday

Maximum temperature yesterday: 64 °F (at 3:50 PM)
Minimum temperature yesterday: 54 °F (at 9:50 PM)
Average temperature yesterday: 60 °F

High & Low Weather Summary for the Past Weeks

 TemperatureHumidityPressure
High79 °F (Aug 23, 3:20 PM)100% (Aug 17, 6:20 AM)30.33 "Hg (Aug 17, 6:20 AM)
Low45 °F (Aug 17, 5:50 AM)46% (Aug 29, 3:20 PM)29.39 "Hg (Aug 20, 3:20 PM)
Average63 °F77%29.98 "Hg
* Reported Aug 14 5:20 PM — Aug 29 5:50 PM, Darlington, Weather by CustomWeather, © 2016

Note: Actual official high and low records may vary slightly from our data, if they occured in-between our weather recording intervals... More about our weather records

Advertising

Darlington Weather History for the Previous 24 Hours

Scroll right to see more
 ConditionsComfort  
Time TempWeatherWind HumidityBarometerVisibility
5:50 PM
Mon, Aug 29
70 °FPassing clouds.13 mph53%30.15 "HgN/A
5:20 PM70 °FPassing clouds.13 mph53%30.15 "HgN/A
4:50 PM70 °FPassing clouds.13 mph53%30.15 "HgN/A
4:20 PM70 °FPassing clouds.14 mph50%30.12 "HgN/A
3:50 PM70 °FPassing clouds.13 mph50%30.12 "HgN/A
3:20 PM70 °FPassing clouds.10 mph46%30.12 "HgN/A
2:50 PM70 °FPassing clouds.12 mph50%30.15 "HgN/A
2:20 PM68 °FPassing clouds.9 mph53%30.15 "HgN/A
1:50 PM68 °FPassing clouds.10 mph56%30.15 "HgN/A
1:20 PM68 °FPassing clouds.10 mph53%30.15 "HgN/A
12:50 PM66 °FPassing clouds.10 mph56%30.12 "HgN/A
12:20 PM66 °FPassing clouds.12 mph56%30.12 "HgN/A
11:50 AM64 °FPassing clouds.12 mph64%30.12 "HgN/A
11:20 AM64 °FPassing clouds.10 mph68%30.12 "HgN/A
10:50 AM64 °FPassing clouds.10 mph68%30.12 "HgN/A
10:20 AM63 °FPassing clouds.10 mph77%30.12 "HgN/A
9:50 AM61 °FPassing clouds.6 mph88%30.12 "HgN/A
9:20 AM59 °FPassing clouds.6 mph94%30.12 "HgN/A
8:50 AM55 °FPassing clouds.5 mph100%30.12 "HgN/A
8:20 AM54 °FPassing clouds.6 mph100%30.09 "HgN/A
7:50 AM52 °FHaze.6 mph100%30.09 "Hg3 mi
5:50 AM48 °FFog.6 mph94%30.07 "Hg0 mi
9:50 PM
Sun, Aug 28
54 °FPassing clouds.5 mph94%30.01 "HgN/A
9:20 PM55 °FPassing clouds.5 mph88%30.01 "HgN/A
8:50 PM55 °FScattered clouds.6 mph94%30.01 "HgN/A
8:20 PM57 °FPassing clouds.6 mph88%29.98 "HgN/A
7:50 PM59 °FPassing clouds.5 mph82%29.98 "HgN/A
7:20 PM61 °FPassing clouds.6 mph77%29.98 "HgN/A
Weather by CustomWeather, © 2016

See weather overviewHow to use our weather pages